sat.trackr.live / text

‹ back to catalog

SAUDICOMSAT 5

NORAD 31124 · 2007-012H

PAYLOAD ACTIVE UNKNOWN

§ Identity

Operator
Country
SAUD
Launch date
2007-04-17
Launch site
TYMSC
Launch vehicle
Mass (kg)
RCS (m²)
0.05

External: N2YO · Heavens-Above · Gunter

§ Orbital elements

Epoch: 2026-09-19T16:18:05.116896Z

Period
98.08 min
Inclination
98.3614°
Eccentricity
0.0047050
Mean motion
14.68259252 rev/d
Perigee alt
633.5 km
Apogee alt
699.8 km
Semi-major
7,044.8 km
B*
6.4842e-5
RAAN
239.5356°
Arg perigee
186.7887°
Mean anomaly
173.2686°
Rev number
3,746

§ Raw data

SAUDICOMSAT 51 31124U 07012H   26262.67922589  .00000326  00000+0  64842-4 0  99952 31124  98.3614 239.5356 0047050 186.7887 173.2686 14.68259252 37465

JSON: /api/v1/satellites/31124 · /tle

For live sub-satellite position, see the globe view (requires WebGL).

§ Visibility from observer

Set your observer location to see the next 7 days of passes ≥ 10°. The values pass through the URL so the page stays shareable.

No JS? Fill the form by hand. The geolocation button needs JavaScript.